Home   Weather   Eau Claire   Past weeks
Flag for USA

Past Weather in Eau Claire, Wisconsin, USA — Yesterday and Last 2 Weeks

Now
49 °F

Sunny.


Feels Like: 46 °F
Forecast: 52 / 28 °F
Wind: 6 mph from Southeast

Location: Eau Claire County Airport

Current Time: Apr 1, 2020 at 1:14:33 pm

Latest Report: Apr 1, 2020 at 11:56 am


Visibility: 10 mi

Pressure: 30.08 "Hg

Humidity: 50%

Dew Point: 31 °F

Location of Eau ClaireLocation

Past Weather in Eau Claire — Graph

°F

Eau Claire Temperature Yesterday

Maximum temperature yesterday: 51 °F (at 3:56 pm)
Minimum temperature yesterday: 29 °F (at 4:56 am)
Average temperature yesterday: 40 °F

High & Low Weather Summary for the Past Weeks

 TemperatureHumidityPressure
High58 °F (Mar 27, 4:56 pm)96% (Mar 19, 3:56 am)30.65 "Hg (Mar 19, 3:56 am)
Low16 °F (Mar 21, 6:56 am)28% (Mar 30, 5:56 pm)29.28 "Hg (Mar 29, 3:56 am)
Average39 °F73%30.02 "Hg
* Reported Mar 17 11:56 am — Apr 1 11:56 am, Eau Claire. Weather by CustomWeather, © 2020

Note: Actual official high and low records may vary slightly from our data, if they occured in-between our weather recording intervals... More about our weather records

Eau Claire Weather History for the Previous 24 Hours

Scroll right to see more
 ConditionsComfort  
Time TempWeatherWind HumidityBarometerVisibility
11:56 am
Wed, Apr 1
49 °FSunny.6 mph50%30.08 "Hg10 mi
10:56 am46 °FSunny.12 mph56%30.09 "Hg10 mi
9:56 am42 °FSunny.8 mph65%30.10 "Hg10 mi
8:56 am38 °FSunny.No wind73%30.10 "Hg10 mi
7:56 am31 °FSunny.No wind89%30.09 "Hg10 mi
6:56 am26 °FSunny.No wind96%30.09 "Hg10 mi
5:56 am27 °FClear.3 mph92%30.08 "Hg10 mi
4:56 am28 °FClear.No wind89%30.08 "Hg10 mi
3:56 am30 °FClear.3 mph85%30.07 "Hg10 mi
2:56 am30 °FClear.5 mph85%30.08 "Hg10 mi
1:56 am31 °FClear.No wind82%30.08 "Hg10 mi
12:56 am33 °FClear.3 mph78%30.08 "Hg10 mi
11:56 pm
Tue, Mar 31
34 °FClear.6 mph76%30.08 "Hg10 mi
10:56 pm37 °FClear.7 mph70%30.08 "Hg10 mi
9:56 pm40 °FClear.5 mph65%30.08 "Hg10 mi
8:56 pm44 °FOvercast.9 mph55%30.07 "Hg10 mi
7:56 pm47 °FOvercast.7 mph50%30.06 "Hg10 mi
6:56 pm49 °FOvercast.10 mph46%30.06 "Hg10 mi
5:56 pm50 °FPassing clouds.6 mph43%30.06 "Hg10 mi
4:56 pm51 °FPassing clouds.8 mph41%30.06 "Hg10 mi
3:56 pm51 °FScattered clouds.9 mph41%30.07 "Hg10 mi
2:56 pm50 °FScattered clouds.6 mph41%30.09 "Hg10 mi
1:56 pm48 °FScattered clouds.9 mph44%30.10 "Hg10 mi
Weather by CustomWeather, © 2020

See weather overview

Advertising